Dades meteomassalio
Diari Summary for Maig 4, 2017 Units:  Metric    English   Both
« Previous Day
Next Day »
Diari Semanal Mensual Anual Personalitzat
  Maxima: Minima: Mijana:
Temperatura: 26.4 °C 7.6 °C 17.4 °C
Rosada: 13.6 °C 5.9 °C 10.6 °C
Humitat: 89 % 42 % 67 %
Velocitat del vent: 19.3 km/h 0.0 km/h 4.3 km/h
Racha vent: 19.3 km/h - -
Vent:- - East
Pressio: 1014.8 hPa 1008.7 hPa -
Pluja: 0.0 mm    
Historical Graphs
 
 
Tabular Data for Maig 4, 2017
Time Temperature Dew Point Pressure Wind Wind Speed Wind Gust Humidity Rainfall Rate (Hourly) solar Conditions
00:03 14.5 °C 10.1 °C 1014.8 hPa Calm     75 % 0.0 mm 0.0 W/m2 CLR
00:08 14.4 °C 10.1 °C 1014.8 hPa Calm     75 % 0.0 mm 0.0 W/m2 CLR
00:10 14.4 °C 10.1 °C 1014.8 hPa Calm     75 % 0.0 mm 0.0 W/m2 CLR
00:11 14.4 °C 10.1 °C 1014.8 hPa Calm     75 % 0.0 mm 0.0 W/m2 CLR
00:16 14.3 °C 9.9 °C 1014.8 hPa Calm     75 % 0.0 mm 0.0 W/m2 CLR
00:21 14.3 °C 10.2 °C 1014.4 hPa Calm     76 % 0.0 mm 0.0 W/m2 CLR
00:26 14.3 °C 10.1 °C 1014.4 hPa Calm     76 % 0.0 mm 0.0 W/m2 CLR
00:31 14.2 °C 10.0 °C 1014.4 hPa Calm   0.2 km/h 76 % 0.0 mm 0.0 W/m2 CLR
00:36 14.2 °C 10.2 °C 1014.4 hPa Calm     77 % 0.0 mm 0.0 W/m2 CLR
00:41 14.2 °C 10.2 °C 1014.4 hPa Calm     77 % 0.0 mm 0.0 W/m2 CLR
00:46 14.1 °C 10.1 °C 1014.1 hPa Calm     77 % 0.0 mm 0.0 W/m2 CLR
00:51 14.1 °C 10.1 °C 1014.4 hPa Calm     77 % 0.0 mm 0.0 W/m2 CLR
00:56 14.0 °C 10.1 °C 1014.1 hPa Calm     77 % 0.0 mm 0.0 W/m2 CLR
01:01 14.0 °C 10.1 °C 1014.1 hPa Calm     77 % 0.0 mm 0.0 W/m2 CLR
01:06 13.9 °C 10.0 °C 1014.1 hPa Calm     77 % 0.0 mm 0.0 W/m2 CLR
01:11 13.9 °C 9.9 °C 1014.4 hPa Calm     77 % 0.0 mm 0.0 W/m2 CLR
01:16 13.9 °C 10.0 °C 1014.1 hPa Calm     77 % 0.0 mm 0.0 W/m2 CLR
01:21 14.0 °C 10.1 °C 1014.1 hPa Calm     77 % 0.0 mm 0.0 W/m2 CLR
01:26 13.9 °C 10.0 °C 1014.1 hPa Calm     77 % 0.0 mm 0.0 W/m2 CLR
01:31 13.8 °C 9.9 °C 1014.1 hPa Calm     77 % 0.0 mm 0.0 W/m2 CLR
01:36 13.7 °C 9.8 °C 1014.1 hPa Calm     77 % 0.0 mm 0.0 W/m2 CLR
01:41 13.6 °C 9.8 °C 1014.1 hPa Calm     78 % 0.0 mm 0.0 W/m2 CLR
01:46 13.7 °C 9.8 °C 1014.1 hPa Calm     77 % 0.0 mm 0.0 W/m2 CLR
01:51 13.8 °C 9.7 °C 1014.1 hPa Calm     76 % 0.0 mm 0.0 W/m2 CLR
01:56 13.8 °C 9.6 °C 1014.1 hPa Calm     76 % 0.0 mm 0.0 W/m2 CLR
02:01 13.6 °C 9.4 °C 1014.1 hPa NE 7.4 km/h 7.4 km/h 76 % 0.0 mm 0.0 W/m2 CLR
02:06 13.3 °C 9.4 °C 1014.1 hPa NE 11.1 km/h 11.1 km/h 77 % 0.0 mm 0.0 W/m2 CLR
02:11 13.3 °C 9.6 °C 1014.1 hPa ENE 9.3 km/h 9.3 km/h 78 % 0.0 mm 0.0 W/m2 CLR
02:16 13.4 °C 9.4 °C 1014.1 hPa Calm     77 % 0.0 mm 0.0 W/m2 CLR
02:21 13.4 °C 9.2 °C 1013.8 hPa Calm     76 % 0.0 mm 0.0 W/m2 CLR
02:26 13.4 °C 9.2 °C 1013.8 hPa Calm     76 % 0.0 mm 0.0 W/m2 CLR
02:31 13.3 °C 9.4 °C 1013.8 hPa Calm     77 % 0.0 mm 0.0 W/m2 CLR
02:36 13.0 °C 9.1 °C 1013.8 hPa Calm     77 % 0.0 mm 0.0 W/m2 CLR
02:41 12.8 °C 9.1 °C 1013.8 hPa Calm     78 % 0.0 mm 0.0 W/m2 CLR
02:46 12.8 °C 9.1 °C 1013.8 hPa Calm     78 % 0.0 mm 0.0 W/m2 CLR
02:51 12.7 °C 9.2 °C 1013.8 hPa Calm     79 % 0.0 mm 0.0 W/m2 CLR
02:56 12.6 °C 9.1 °C 1013.8 hPa Calm     79 % 0.0 mm 0.0 W/m2 CLR
03:01 12.5 °C 9.2 °C 1013.8 hPa Calm     80 % 0.0 mm 0.0 W/m2 CLR
03:06 12.4 °C 9.3 °C 1013.4 hPa Calm     81 % 0.0 mm 0.0 W/m2 CLR
03:11 12.3 °C 9.0 °C 1013.4 hPa Calm     80 % 0.0 mm 0.0 W/m2 CLR
03:17 12.2 °C 9.1 °C 1013.4 hPa Calm     81 % 0.0 mm 0.0 W/m2 CLR
03:22 12.1 °C 9.1 °C 1013.1 hPa Calm     82 % 0.0 mm 0.0 W/m2 CLR
03:27 12.0 °C 9.2 °C 1013.1 hPa Calm     83 % 0.0 mm 0.0 W/m2 CLR
03:32 12.0 °C 9.2 °C 1013.1 hPa Calm     83 % 0.0 mm 0.0 W/m2 CLR
03:37 11.9 °C 9.1 °C 1013.1 hPa Calm     83 % 0.0 mm 0.0 W/m2 CLR
03:42 11.8 °C 9.2 °C 1013.1 hPa Calm     84 % 0.0 mm 0.0 W/m2 CLR
03:47 11.8 °C 9.2 °C 1013.1 hPa Calm     84 % 0.0 mm 0.0 W/m2 CLR
03:52 11.6 °C 8.8 °C 1013.1 hPa Calm     83 % 0.0 mm 0.0 W/m2 CLR
03:57 11.3 °C 8.6 °C 1013.1 hPa Calm     83 % 0.0 mm 0.0 W/m2 CLR
04:02 11.2 °C 8.4 °C 1013.1 hPa Calm     83 % 0.0 mm 0.0 W/m2 CLR
04:07 11.1 °C 8.3 °C 1013.1 hPa Calm     83 % 0.0 mm 0.0 W/m2 CLR
04:12 10.9 °C 8.3 °C 1013.4 hPa Calm     84 % 0.0 mm 0.0 W/m2 CLR
04:17 10.8 °C 8.4 °C 1013.4 hPa Calm     85 % 0.0 mm 0.0 W/m2 CLR
04:22 10.7 °C 8.3 °C 1013.4 hPa Calm     85 % 0.0 mm 0.0 W/m2 CLR
04:27 10.6 °C 8.2 °C 1013.4 hPa Calm     85 % 0.0 mm 0.0 W/m2 CLR
04:32 10.4 °C 8.1 °C 1013.4 hPa Calm     85 % 0.0 mm 0.0 W/m2 CLR
04:37 10.3 °C 7.9 °C 1013.4 hPa Calm     85 % 0.0 mm 0.0 W/m2 CLR
04:42 10.2 °C 8.0 °C 1013.4 hPa Calm     86 % 0.0 mm 0.0 W/m2 CLR
04:47 10.2 °C 7.9 °C 1013.4 hPa Calm     86 % 0.0 mm 0.0 W/m2 CLR
04:52 10.1 °C 7.9 °C 1013.4 hPa Calm     86 % 0.0 mm 0.0 W/m2 CLR
04:57 9.9 °C 7.5 °C 1013.4 hPa Calm     85 % 0.0 mm 0.0 W/m2 CLR
05:02 9.7 °C 7.3 °C 1013.4 hPa Calm     85 % 0.0 mm 0.0 W/m2 CLR
05:07 9.4 °C 7.1 °C 1013.4 hPa Calm     85 % 0.0 mm 0.0 W/m2 CLR
05:12 9.3 °C 7.1 °C 1013.4 hPa Calm     86 % 0.0 mm 0.0 W/m2 CLR
05:17 9.2 °C 6.9 °C 1013.1 hPa Calm     86 % 0.0 mm 0.0 W/m2 CLR
05:22 9.1 °C 6.8 °C 1013.1 hPa Calm     86 % 0.0 mm 0.0 W/m2 CLR
05:27 9.0 °C 6.8 °C 1013.1 hPa Calm     86 % 0.0 mm 0.0 W/m2 CLR
05:32 8.9 °C 6.8 °C 1013.1 hPa Calm     87 % 0.0 mm 0.0 W/m2 CLR
05:37 8.8 °C 6.7 °C 1013.1 hPa Calm     87 % 0.0 mm 0.0 W/m2 CLR
05:42 8.7 °C 6.6 °C 1013.1 hPa Calm     87 % 0.0 mm 0.0 W/m2 CLR
05:47 8.6 °C 6.5 °C 1013.1 hPa Calm     87 % 0.0 mm 0.0 W/m2 CLR
05:52 8.5 °C 6.6 °C 1013.1 hPa Calm     88 % 0.0 mm 0.0 W/m2 CLR
05:57 8.4 °C 6.5 °C 1013.1 hPa Calm     88 % 0.0 mm 0.0 W/m2 CLR
06:02 8.3 °C 6.4 °C 1013.1 hPa Calm     88 % 0.0 mm 0.0 W/m2 CLR
06:07 8.3 °C 6.4 °C 1013.1 hPa Calm     88 % 0.0 mm 0.0 W/m2 CLR
06:12 8.2 °C 6.3 °C 1013.1 hPa Calm     88 % 0.0 mm 0.0 W/m2 CLR
06:17 8.1 °C 6.2 °C 1013.1 hPa Calm     88 % 0.0 mm 0.0 W/m2 CLR
06:22 8.1 °C 6.3 °C 1013.1 hPa Calm     89 % 0.0 mm 0.0 W/m2 CLR
06:27 8.1 °C 6.3 °C 1013.1 hPa Calm     89 % 0.0 mm 0.0 W/m2 CLR
06:32 8.0 °C 6.3 °C 1013.1 hPa Calm     89 % 0.0 mm 0.0 W/m2 CLR
06:37 7.9 °C 6.2 °C 1013.1 hPa Calm     89 % 0.0 mm 0.0 W/m2 CLR
06:42 7.8 °C 5.9 °C 1013.1 hPa Calm     88 % 0.0 mm 0.0 W/m2 CLR
06:47 7.8 °C 6.1 °C 1012.8 hPa Calm     89 % 0.0 mm 0.0 W/m2 OVC
06:52 7.7 °C 6.0 °C 1012.8 hPa Calm     89 % 0.0 mm 5.0 W/m2 OVC
06:57 7.7 °C 5.9 °C 1013.1 hPa Calm     89 % 0.0 mm 9.0 W/m2 BKN
07:02 7.6 °C 5.9 °C 1013.1 hPa Calm     89 % 0.0 mm 14.0 W/m2 BKN
07:07 7.6 °C 5.9 °C 1013.1 hPa Calm     89 % 0.0 mm 18.0 W/m2 BKN
07:12 7.6 °C 5.9 °C 1013.1 hPa Calm     89 % 0.0 mm 21.0 W/m2 BKN
07:17 7.6 °C 5.9 °C 1013.1 hPa Calm     89 % 0.0 mm 25.0 W/m2 BKN
07:22 7.6 °C 5.9 °C 1013.1 hPa Calm     89 % 0.0 mm 30.0 W/m2 BKN
07:27 7.7 °C 5.9 °C 1013.1 hPa Calm     89 % 0.0 mm 37.0 W/m2 BKN
07:32 7.8 °C 6.1 °C 1013.1 hPa Calm     89 % 0.0 mm 47.0 W/m2 SCT
07:33 7.8 °C 6.1 °C 1013.1 hPa Calm     89 % 0.0 mm 47.0 W/m2 SCT
07:38 7.9 °C 6.2 °C 1013.1 hPa Calm     89 % 0.0 mm 47.0 W/m2 SCT
07:43 8.2 °C 6.5 °C 1013.1 hPa Calm     89 % 0.0 mm 70.0 W/m2 SCT
07:48 8.4 °C 6.6 °C 1013.1 hPa Calm     88 % 0.0 mm 76.0 W/m2 FEW
07:53 8.7 °C 6.8 °C 1013.1 hPa Calm     88 % 0.0 mm 88.0 W/m2 FEW
07:58 8.9 °C 6.9 °C 1013.1 hPa Calm     87 % 0.0 mm 104.0 W/m2 CLR
08:03 9.2 °C 7.2 °C 1013.1 hPa Calm     87 % 0.0 mm 118.0 W/m2 CLR
08:08 9.6 °C 7.4 °C 1013.1 hPa Calm     86 % 0.0 mm 137.0 W/m2 CLR
08:13 9.9 °C 7.6 °C 1013.1 hPa Calm     85 % 0.0 mm 153.0 W/m2 CLR
08:18 10.2 °C 7.6 °C 1013.1 hPa Calm     84 % 0.0 mm 167.0 W/m2 CLR
08:23 10.4 °C 7.7 °C 1013.1 hPa Calm     83 % 0.0 mm 186.0 W/m2 CLR
08:28 10.7 °C 7.8 °C 1013.1 hPa Calm     82 % 0.0 mm 207.0 W/m2 CLR
08:33 11.1 °C 8.2 °C 1013.1 hPa Calm     82 % 0.0 mm 223.0 W/m2 CLR
08:38 11.6 °C 8.2 °C 1013.1 hPa Calm     80 % 0.0 mm 241.0 W/m2 CLR
08:43 11.8 °C 8.3 °C 1012.8 hPa Calm     79 % 0.0 mm 257.0 W/m2 CLR
08:48 12.2 °C 8.4 °C 1012.8 hPa Calm     78 % 0.0 mm 271.0 W/m2 CLR
08:53 12.5 °C 8.8 °C 1012.8 hPa Calm     78 % 0.0 mm 290.0 W/m2 CLR
08:58 12.9 °C 8.8 °C 1012.8 hPa Calm     76 % 0.0 mm 308.0 W/m2 CLR
09:03 13.2 °C 9.0 °C 1012.8 hPa Calm     76 % 0.0 mm 294.0 W/m2 CLR
09:08 13.4 °C 8.8 °C 1012.4 hPa Calm     74 % 0.0 mm 334.0 W/m2 CLR
09:13 13.7 °C 9.1 °C 1012.4 hPa Calm     74 % 0.0 mm 355.0 W/m2 CLR
09:18 14.0 °C 9.4 °C 1012.4 hPa Calm     74 % 0.0 mm 357.0 W/m2 CLR
09:23 14.4 °C 9.9 °C 1012.4 hPa Calm     74 % 0.0 mm 388.0 W/m2 CLR
09:28 14.8 °C 9.8 °C 1012.4 hPa Calm     72 % 0.0 mm 323.0 W/m2 CLR
09:33 15.2 °C 10.2 °C 1012.4 hPa Calm     72 % 0.0 mm 137.0 W/m2 CLR
09:38 15.4 °C 9.9 °C 1012.4 hPa Calm     70 % 0.0 mm 439.0 W/m2 CLR
09:43 15.6 °C 10.2 °C 1012.1 hPa Calm     70 % 0.0 mm 434.0 W/m2 CLR
09:48 15.7 °C 10.3 °C 1012.1 hPa Calm     70 % 0.0 mm 366.0 W/m2 CLR
09:53 15.9 °C 10.2 °C 1012.1 hPa Calm     69 % 0.0 mm 483.0 W/m2 CLR
09:58 16.2 °C 9.6 °C 1012.1 hPa Calm     65 % 0.0 mm 499.0 W/m2 CLR
10:03 16.6 °C 9.6 °C 1012.1 hPa Calm     63 % 0.0 mm 515.0 W/m2 CLR
10:08 16.9 °C 8.9 °C 1012.1 hPa Calm     59 % 0.0 mm 533.0 W/m2 CLR
10:13 17.1 °C 9.8 °C 1011.7 hPa Calm     62 % 0.0 mm 541.0 W/m2 CLR
10:18 17.4 °C 10.1 °C 1011.7 hPa Calm     62 % 0.0 mm 559.0 W/m2 CLR
10:23 17.6 °C 10.5 °C 1012.1 hPa Calm     63 % 0.0 mm 575.0 W/m2 CLR
10:28 17.8 °C 10.4 °C 1012.1 hPa Calm     62 % 0.0 mm 589.0 W/m2 CLR
10:33 17.8 °C 10.7 °C 1012.1 hPa ENE 5.6 km/h 5.6 km/h 63 % 0.0 mm 605.0 W/m2 CLR
10:38 18.2 °C 11.1 °C 1011.7 hPa ENE 9.3 km/h 9.3 km/h 63 % 0.0 mm 626.0 W/m2 CLR
10:43 18.4 °C 10.7 °C 1011.7 hPa NE 5.6 km/h   61 % 0.0 mm 568.0 W/m2 CLR
10:48 18.6 °C 10.6 °C 1011.7 hPa North 7.4 km/h 7.4 km/h 60 % 0.0 mm 654.0 W/m2 CLR
10:53 18.8 °C 11.1 °C 1011.7 hPa ENE 6.4 km/h 6.4 km/h 61 % 0.0 mm 680.0 W/m2 CLR
10:58 18.9 °C 11.0 °C 1012.1 hPa ENE 5.6 km/h 5.6 km/h 60 % 0.0 mm 693.0 W/m2 CLR
11:03 19.2 °C 11.3 °C 1011.7 hPa ENE 4.8 km/h 4.8 km/h 60 % 0.0 mm 585.0 W/m2 CLR
11:08 19.3 °C 11.1 °C 1011.7 hPa East 11.1 km/h 11.1 km/h 59 % 0.0 mm 689.0 W/m2 CLR
11:13 19.4 °C 10.9 °C 1011.7 hPa NNE 7.4 km/h 7.4 km/h 58 % 0.0 mm 752.0 W/m2 CLR
11:18 19.4 °C 10.4 °C 1011.7 hPa ENE 9.3 km/h 9.3 km/h 56 % 0.0 mm 698.0 W/m2 CLR
11:23 19.3 °C 10.6 °C 1011.7 hPa NNE 9.3 km/h 9.3 km/h 57 % 0.0 mm 592.0 W/m2 CLR
11:28 19.4 °C 10.4 °C 1011.7 hPa NE 5.6 km/h 5.6 km/h 56 % 0.0 mm 650.0 W/m2 CLR
11:34 19.7 °C 10.4 °C 1011.7 hPa NNE 11.1 km/h 11.1 km/h 55 % 0.0 mm 758.0 W/m2 CLR
11:39 19.9 °C 10.1 °C 1011.7 hPa NE 8.0 km/h 8.0 km/h 53 % 0.0 mm 789.0 W/m2 CLR
11:44 20.2 °C 10.6 °C 1011.7 hPa NE 13.0 km/h 13.0 km/h 54 % 0.0 mm 795.0 W/m2 CLR
11:49 20.4 °C 10.5 °C 1011.7 hPa NE 13.0 km/h 13.0 km/h 53 % 0.0 mm 758.0 W/m2 CLR
11:54 20.7 °C 10.4 °C 1011.7 hPa ENE 9.3 km/h 9.3 km/h 52 % 0.0 mm 796.0 W/m2 CLR
11:59 20.8 °C 10.6 °C 1011.4 hPa NE 16.7 km/h 16.7 km/h 52 % 0.0 mm 812.0 W/m2 CLR
12:04 21.0 °C 10.8 °C 1011.7 hPa NNE 14.8 km/h 14.8 km/h 52 % 0.0 mm 807.0 W/m2 CLR
12:09 21.1 °C 10.5 °C 1011.4 hPa North 9.3 km/h 9.3 km/h 51 % 0.0 mm 800.0 W/m2 CLR
12:14 21.3 °C 11.0 °C 1011.4 hPa Calm     52 % 0.0 mm 816.0 W/m2 CLR
12:19 21.6 °C 11.1 °C 1011.4 hPa NNE 9.3 km/h 9.3 km/h 51 % 0.0 mm 830.0 W/m2 CLR
12:24 21.7 °C 11.1 °C 1011.1 hPa ENE 7.4 km/h 7.4 km/h 51 % 0.0 mm 853.0 W/m2 CLR
12:29 22.1 °C 11.4 °C 1011.1 hPa ENE 5.6 km/h 5.6 km/h 51 % 0.0 mm 856.0 W/m2 CLR
12:34 22.3 °C 11.3 °C 1011.1 hPa NE 16.7 km/h 16.7 km/h 50 % 0.0 mm 854.0 W/m2 CLR
12:39 22.3 °C 11.4 °C 1011.1 hPa NE 11.1 km/h 11.1 km/h 50 % 0.0 mm 865.0 W/m2 CLR
12:44 22.5 °C 11.6 °C 1011.1 hPa ENE 9.3 km/h 9.3 km/h 50 % 0.0 mm 870.0 W/m2 CLR
12:49 22.7 °C 11.4 °C 1010.7 hPa ESE 11.1 km/h 11.1 km/h 49 % 0.0 mm 882.0 W/m2 CLR
12:54 22.8 °C 11.6 °C 1011.1 hPa NE 14.8 km/h 14.8 km/h 49 % 0.0 mm 874.0 W/m2 CLR
12:59 23.0 °C 11.4 °C 1010.7 hPa ENE 7.4 km/h 7.4 km/h 48 % 0.0 mm 884.0 W/m2 CLR
13:04 23.2 °C 11.6 °C 1010.7 hPa East 3.7 km/h 3.7 km/h 48 % 0.0 mm 888.0 W/m2 CLR
13:09 23.4 °C 11.5 °C 1010.7 hPa East 3.7 km/h 3.7 km/h 47 % 0.0 mm 812.0 W/m2 CLR
13:14 23.6 °C 11.6 °C 1010.7 hPa ENE 5.6 km/h 5.6 km/h 47 % 0.0 mm 893.0 W/m2 CLR
13:19 23.8 °C 11.8 °C 1010.4 hPa NNE 13.0 km/h 13.0 km/h 47 % 0.0 mm 893.0 W/m2 CLR
13:24 23.9 °C 11.6 °C 1010.4 hPa ENE 5.6 km/h 5.6 km/h 46 % 0.0 mm 900.0 W/m2 CLR
13:29 24.0 °C 11.7 °C 1010.4 hPa ENE 5.6 km/h 5.6 km/h 46 % 0.0 mm 902.0 W/m2 CLR
13:34 24.1 °C 11.7 °C 1010.4 hPa ENE 16.7 km/h 16.7 km/h 46 % 0.0 mm 907.0 W/m2 CLR
13:39 23.9 °C 11.2 °C 1010.0 hPa SE 9.3 km/h 9.3 km/h 45 % 0.0 mm 909.0 W/m2 CLR
13:44 23.7 °C 11.3 °C 1010.0 hPa East 9.3 km/h 9.3 km/h 46 % 0.0 mm 907.0 W/m2 CLR
13:49 23.7 °C 11.7 °C 1009.7 hPa NE 11.1 km/h 11.1 km/h 47 % 0.0 mm 909.0 W/m2 CLR
13:54 24.1 °C 12.1 °C 1009.7 hPa ENE 13.0 km/h 13.0 km/h 47 % 0.0 mm 907.0 W/m2 CLR
13:59 24.3 °C 11.6 °C 1009.7 hPa East 9.3 km/h 9.3 km/h 45 % 0.0 mm 909.0 W/m2 CLR
14:04 24.4 °C 12.0 °C 1009.7 hPa ENE 9.3 km/h 9.3 km/h 46 % 0.0 mm 909.0 W/m2 CLR
14:09 24.3 °C 11.6 °C 1009.7 hPa ENE 13.0 km/h 13.0 km/h 45 % 0.0 mm 909.0 W/m2 CLR
14:14 24.4 °C 11.7 °C 1009.7 hPa Calm     45 % 0.0 mm 904.0 W/m2 CLR
14:19 24.9 °C 12.5 °C 1009.7 hPa ENE 14.5 km/h 14.5 km/h 46 % 0.0 mm 909.0 W/m2 CLR
14:24 25.1 °C 12.0 °C 1009.4 hPa East 1.9 km/h   44 % 0.0 mm 907.0 W/m2 CLR
14:29 25.3 °C 11.8 °C 1009.4 hPa East 18.5 km/h 18.5 km/h 43 % 0.0 mm 907.0 W/m2 CLR
14:34 24.9 °C 11.8 °C 1009.4 hPa NNE 5.6 km/h 5.6 km/h 44 % 0.0 mm 902.0 W/m2 CLR
14:39 25.3 °C 12.2 °C 1009.4 hPa East 13.0 km/h 13.0 km/h 44 % 0.0 mm 904.0 W/m2 CLR
14:44 25.2 °C 12.1 °C 1009.4 hPa ESE 13.0 km/h 13.0 km/h 44 % 0.0 mm 907.0 W/m2 CLR
14:49 25.4 °C 12.2 °C 1009.4 hPa ENE 5.6 km/h 5.6 km/h 44 % 0.0 mm 904.0 W/m2 CLR
14:54 25.5 °C 12.0 °C 1009.4 hPa ESE 16.1 km/h 16.1 km/h 43 % 0.0 mm 809.0 W/m2 CLR
14:59 25.4 °C 11.9 °C 1009.4 hPa NE 3.7 km/h   43 % 0.0 mm 902.0 W/m2 CLR
15:04 25.5 °C 11.7 °C 1009.4 hPa East 13.0 km/h 13.0 km/h 42 % 0.0 mm 918.0 W/m2 CLR
15:09 25.6 °C 12.1 °C 1009.4 hPa SE 14.8 km/h 14.8 km/h 43 % 0.0 mm 928.0 W/m2 CLR
15:14 25.7 °C 12.2 °C 1009.0 hPa East 5.6 km/h 5.6 km/h 43 % 0.0 mm 893.0 W/m2 CLR
15:19 26.1 °C 12.5 °C 1009.0 hPa ENE 13.0 km/h 13.0 km/h 43 % 0.0 mm 875.0 W/m2 CLR
15:24 26.3 °C 12.7 °C 1009.0 hPa NE 16.7 km/h 16.7 km/h 43 % 0.0 mm 865.0 W/m2 CLR
15:29 26.3 °C 12.7 °C 1009.0 hPa ENE 14.8 km/h 14.8 km/h 43 % 0.0 mm 830.0 W/m2 CLR
15:34 26.3 °C 12.4 °C 1009.0 hPa ENE 19.3 km/h 19.3 km/h 42 % 0.0 mm 840.0 W/m2 CLR
15:39 26.3 °C 12.7 °C 1009.0 hPa ENE 9.3 km/h 9.3 km/h 43 % 0.0 mm 798.0 W/m2 CLR
15:44 26.0 °C 12.8 °C 1009.0 hPa ESE 13.0 km/h 13.0 km/h 44 % 0.0 mm 733.0 W/m2 CLR
15:49 25.7 °C 12.9 °C 1009.0 hPa ESE 11.1 km/h 11.1 km/h 45 % 0.0 mm 689.0 W/m2 CLR
15:54 25.9 °C 13.1 °C 1009.0 hPa ESE 11.1 km/h 11.1 km/h 45 % 0.0 mm 809.0 W/m2 CLR
15:59 26.0 °C 12.8 °C 1009.0 hPa East 9.3 km/h 9.3 km/h 44 % 0.0 mm 721.0 W/m2 CLR
16:04 25.8 °C 12.9 °C 1009.0 hPa ENE 11.1 km/h 11.1 km/h 45 % 0.0 mm 812.0 W/m2 CLR
16:09 25.9 °C 13.4 °C 1008.7 hPa NE 11.1 km/h 11.1 km/h 46 % 0.0 mm 728.0 W/m2 CLR
16:14 26.1 °C 12.9 °C 1008.7 hPa East 16.7 km/h 16.7 km/h 44 % 0.0 mm 773.0 W/m2 CLR
16:19 26.3 °C 13.1 °C 1008.7 hPa ENE 14.8 km/h 14.8 km/h 44 % 0.0 mm 756.0 W/m2 CLR
16:24 26.4 °C 12.8 °C 1008.7 hPa ESE 13.0 km/h 13.0 km/h 43 % 0.0 mm 724.0 W/m2 CLR
16:29 26.2 °C 13.3 °C 1008.7 hPa ENE 14.8 km/h 14.8 km/h 45 % 0.0 mm 663.0 W/m2 CLR
16:34 26.2 °C 13.3 °C 1008.7 hPa ENE 14.8 km/h 14.8 km/h 45 % 0.0 mm 608.0 W/m2 CLR
16:40 26.1 °C 12.8 °C 1008.7 hPa East 5.6 km/h 5.6 km/h 44 % 0.0 mm 649.0 W/m2 CLR
16:45 26.2 °C 12.9 °C 1008.7 hPa East 8.0 km/h 8.0 km/h 44 % 0.0 mm 684.0 W/m2 CLR
16:50 26.3 °C 13.1 °C 1008.7 hPa ENE 12.9 km/h 12.9 km/h 44 % 0.0 mm 698.0 W/m2 CLR
16:55 26.2 °C 12.7 °C 1008.7 hPa ESE 9.3 km/h 9.3 km/h 43 % 0.0 mm 712.0 W/m2 CLR
17:00 26.2 °C 12.6 °C 1008.7 hPa ENE 7.4 km/h 7.4 km/h 43 % 0.0 mm 643.0 W/m2 CLR
17:05 26.1 °C 12.8 °C 1008.7 hPa ESE 18.5 km/h 18.5 km/h 44 % 0.0 mm 707.0 W/m2 CLR
17:10 25.9 °C 12.7 °C 1008.7 hPa ESE 18.5 km/h 18.5 km/h 44 % 0.0 mm 647.0 W/m2 CLR
17:15 25.6 °C 12.4 °C 1008.7 hPa East 11.1 km/h 11.1 km/h 44 % 0.0 mm 376.0 W/m2 CLR
17:20 25.4 °C 13.0 °C 1008.7 hPa ESE 13.0 km/h 13.0 km/h 46 % 0.0 mm 364.0 W/m2 CLR
17:25 25.3 °C 12.9 °C 1008.7 hPa ESE 11.3 km/h 11.6 km/h 46 % 0.0 mm 394.0 W/m2 CLR
17:30 25.1 °C 12.7 °C 1008.7 hPa East 14.8 km/h 14.8 km/h 46 % 0.0 mm 396.0 W/m2 CLR
17:35 25.0 °C 12.9 °C 1008.7 hPa East 14.8 km/h 14.8 km/h 47 % 0.0 mm 455.0 W/m2 CLR
17:40 24.9 °C 12.8 °C 1008.7 hPa ENE 9.3 km/h 9.3 km/h 47 % 0.0 mm 313.0 W/m2 CLR
17:45 24.8 °C 12.8 °C 1008.7 hPa East 9.3 km/h 9.3 km/h 47 % 0.0 mm 278.0 W/m2 CLR
17:50 24.7 °C 12.7 °C 1009.0 hPa East 9.3 km/h 9.3 km/h 47 % 0.0 mm 253.0 W/m2 CLR
17:55 24.6 °C 13.2 °C 1009.0 hPa ENE 17.7 km/h 17.7 km/h 49 % 0.0 mm 666.0 W/m2 CLR
18:00 24.9 °C 13.2 °C 1009.0 hPa ESE 11.1 km/h 11.1 km/h 48 % 0.0 mm 671.0 W/m2 CLR
18:05 24.9 °C 13.5 °C 1009.0 hPa ESE 16.7 km/h 16.7 km/h 49 % 0.0 mm 613.0 W/m2 CLR
18:10 24.6 °C 13.1 °C 1009.0 hPa East 13.0 km/h 13.0 km/h 49 % 0.0 mm 594.0 W/m2 CLR
18:15 24.5 °C 13.1 °C 1009.0 hPa East 11.1 km/h 11.1 km/h 49 % 0.0 mm 466.0 W/m2 CLR
18:20 24.3 °C 13.5 °C 1009.4 hPa ESE 9.3 km/h 9.3 km/h 51 % 0.0 mm 309.0 W/m2 CLR
18:25 24.0 °C 13.6 °C 1009.4 hPa ESE 8.0 km/h 8.0 km/h 52 % 0.0 mm 246.0 W/m2 CLR
18:30 23.7 °C 13.2 °C 1009.4 hPa ESE 7.4 km/h 7.4 km/h 52 % 0.0 mm 244.0 W/m2 CLR
18:35 23.5 °C 13.1 °C 1009.4 hPa ESE 9.3 km/h 9.3 km/h 52 % 0.0 mm 306.0 W/m2 CLR
18:40 23.3 °C 12.9 °C 1009.4 hPa SE 11.1 km/h 11.1 km/h 52 % 0.0 mm 239.0 W/m2 CLR
18:45 23.1 °C 13.0 °C 1009.4 hPa ESE 11.3 km/h 11.3 km/h 53 % 0.0 mm 207.0 W/m2 CLR
18:50 22.8 °C 13.1 °C 1009.4 hPa East 11.1 km/h 11.1 km/h 54 % 0.0 mm 223.0 W/m2 CLR
18:55 22.6 °C 13.1 °C 1009.4 hPa ESE 13.0 km/h 13.0 km/h 55 % 0.0 mm 211.0 W/m2 CLR
19:00 22.2 °C 13.2 °C 1009.4 hPa Calm     57 % 0.0 mm 178.0 W/m2 CLR
19:05 21.9 °C 13.3 °C 1009.4 hPa ENE 9.3 km/h 9.3 km/h 58 % 0.0 mm 151.0 W/m2 CLR
19:10 21.8 °C 13.4 °C 1009.0 hPa ENE 5.6 km/h 5.6 km/h 59 % 0.0 mm 128.0 W/m2 CLR
19:15 21.8 °C 13.2 °C 1009.0 hPa East 1.9 km/h 1.9 km/h 58 % 0.0 mm 120.0 W/m2 CLR
19:20 21.8 °C 13.2 °C 1009.0 hPa ESE 5.6 km/h 5.6 km/h 58 % 0.0 mm 111.0 W/m2 CLR
19:21 21.8 °C 13.2 °C 1009.0 hPa East 5.6 km/h 5.6 km/h 58 % 0.0 mm 107.0 W/m2 CLR
19:26 21.7 °C 13.1 °C 1009.0 hPa East 4.8 km/h 4.8 km/h 58 % 0.0 mm 97.0 W/m2 CLR
19:31 21.7 °C 13.1 °C 1009.0 hPa East 8.0 km/h 8.0 km/h 58 % 0.0 mm 84.0 W/m2 CLR
19:37 21.5 °C 13.2 °C 1009.0 hPa East 11.1 km/h 11.1 km/h 59 % 0.0 mm 70.0 W/m2 CLR
19:42 21.3 °C 13.0 °C 1009.0 hPa ESE 9.7 km/h 9.7 km/h 59 % 0.0 mm 62.0 W/m2 FEW
19:47 21.2 °C 13.1 °C 1009.0 hPa East 9.3 km/h 9.3 km/h 60 % 0.0 mm 60.0 W/m2 SCT
19:52 21.0 °C 12.9 °C 1009.0 hPa East 7.4 km/h 7.4 km/h 60 % 0.0 mm 56.0 W/m2 SCT
19:57 20.9 °C 12.9 °C 1009.0 hPa Calm     60 % 0.0 mm 53.0 W/m2 SCT
20:02 20.9 °C 12.8 °C 1009.4 hPa Calm     60 % 0.0 mm 46.0 W/m2 SCT
20:07 20.9 °C 13.1 °C 1009.4 hPa Calm     61 % 0.0 mm 39.0 W/m2 BKN
20:12 20.7 °C 12.9 °C 1009.4 hPa Calm     61 % 0.0 mm 33.0 W/m2 BKN
20:17 20.6 °C 12.8 °C 1009.4 hPa Calm     61 % 0.0 mm 28.0 W/m2 BKN
20:22 20.4 °C 12.9 °C 1009.4 hPa Calm     62 % 0.0 mm 26.0 W/m2 BKN
20:27 20.3 °C 13.1 °C 1009.7 hPa Calm     63 % 0.0 mm 23.0 W/m2 BKN
20:32 20.1 °C 13.1 °C 1009.7 hPa Calm     64 % 0.0 mm 19.0 W/m2 BKN
20:37 19.8 °C 13.1 °C 1009.7 hPa Calm     65 % 0.0 mm 14.0 W/m2 BKN
20:42 19.7 °C 12.9 °C 1009.7 hPa Calm     65 % 0.0 mm 9.0 W/m2 BKN
20:47 19.5 °C 12.7 °C 1009.7 hPa ESE 3.7 km/h   65 % 0.0 mm 5.0 W/m2 OVC
20:52 19.4 °C 12.6 °C 1009.7 hPa Calm     65 % 0.0 mm 0.0 W/m2 OVC
20:57 19.3 °C 12.6 °C 1009.7 hPa Calm     65 % 0.0 mm 0.0 W/m2 OVC
21:02 19.2 °C 12.7 °C 1009.7 hPa Calm     66 % 0.0 mm 0.0 W/m2 CLR
21:07 19.2 °C 12.7 °C 1009.7 hPa Calm     66 % 0.0 mm 0.0 W/m2 CLR
21:12 19.1 °C 12.6 °C 1009.7 hPa Calm     66 % 0.0 mm 0.0 W/m2 CLR
21:17 19.0 °C 12.5 °C 1010.0 hPa Calm     66 % 0.0 mm 0.0 W/m2 CLR
21:22 19.0 °C 12.5 °C 1010.0 hPa Calm     66 % 0.0 mm 0.0 W/m2 CLR
21:27 19.0 °C 12.5 °C 1010.0 hPa Calm     66 % 0.0 mm 0.0 W/m2 CLR
21:32 18.9 °C 12.4 °C 1010.0 hPa Calm     66 % 0.0 mm 0.0 W/m2 CLR
21:37 18.8 °C 12.5 °C 1010.0 hPa Calm     67 % 0.0 mm 0.0 W/m2 CLR
21:42 18.6 °C 12.3 °C 1010.4 hPa Calm     67 % 0.0 mm 0.0 W/m2 CLR
21:47 18.3 °C 12.3 °C 1010.4 hPa Calm     68 % 0.0 mm 0.0 W/m2 CLR
21:52 18.2 °C 12.2 °C 1010.4 hPa Calm     68 % 0.0 mm 0.0 W/m2 CLR
21:57 18.0 °C 12.2 °C 1010.7 hPa Calm     69 % 0.0 mm 0.0 W/m2 CLR
22:02 17.9 °C 12.1 °C 1010.7 hPa Calm     69 % 0.0 mm 0.0 W/m2 CLR
22:07 17.8 °C 12.2 °C 1010.7 hPa Calm     70 % 0.0 mm 0.0 W/m2 CLR
22:12 17.7 °C 12.1 °C 1010.7 hPa Calm     70 % 0.0 mm 0.0 W/m2 CLR
22:17 17.6 °C 12.2 °C 1010.7 hPa Calm     71 % 0.0 mm 0.0 W/m2 CLR
22:22 17.4 °C 12.1 °C 1010.7 hPa Calm     71 % 0.0 mm 0.0 W/m2 CLR
22:27 17.3 °C 12.2 °C 1011.1 hPa Calm     72 % 0.0 mm 0.0 W/m2 CLR
22:32 17.2 °C 12.1 °C 1011.1 hPa Calm     72 % 0.0 mm 0.0 W/m2 CLR
22:37 17.0 °C 12.1 °C 1011.1 hPa Calm     73 % 0.0 mm 0.0 W/m2 CLR
22:42 16.9 °C 12.2 °C 1011.1 hPa Calm     74 % 0.0 mm 0.0 W/m2 CLR
22:47 16.8 °C 12.1 °C 1011.1 hPa Calm     74 % 0.0 mm 0.0 W/m2 CLR
22:52 16.7 °C 12.2 °C 1011.1 hPa Calm     75 % 0.0 mm 0.0 W/m2 CLR
22:57 16.7 °C 12.2 °C 1011.1 hPa Calm     75 % 0.0 mm 0.0 W/m2 CLR
23:02 16.7 °C 12.2 °C 1011.1 hPa Calm     75 % 0.0 mm 0.0 W/m2 CLR
23:07 16.7 °C 12.2 °C 1011.1 hPa Calm     75 % 0.0 mm 0.0 W/m2 CLR
23:12 16.6 °C 12.2 °C 1011.1 hPa Calm     75 % 0.0 mm 0.0 W/m2 CLR
23:17 16.6 °C 12.2 °C 1011.4 hPa East 7.4 km/h 7.4 km/h 75 % 0.0 mm 0.0 W/m2 CLR
23:22 16.6 °C 12.3 °C 1011.1 hPa Calm     76 % 0.0 mm 0.0 W/m2 CLR
23:27 16.5 °C 12.3 °C 1011.1 hPa Calm     76 % 0.0 mm 0.0 W/m2 CLR
23:33 16.5 °C 12.3 °C 1011.1 hPa ESE 9.7 km/h 9.7 km/h 76 % 0.0 mm 0.0 W/m2 CLR
23:38 16.5 °C 12.3 °C 1010.7 hPa SE 9.3 km/h 9.3 km/h 76 % 0.0 mm 0.0 W/m2 CLR
23:43 16.4 °C 12.3 °C 1010.7 hPa ESE 5.6 km/h 5.6 km/h 77 % 0.0 mm 0.0 W/m2 CLR
23:48 16.4 °C 12.3 °C 1010.7 hPa ESE 11.1 km/h 11.1 km/h 77 % 0.0 mm 0.0 W/m2 CLR
23:53 16.4 °C 12.3 °C 1010.7 hPa SE 7.4 km/h 7.4 km/h 77 % 0.0 mm 0.0 W/m2 CLR
23:58 16.4 °C 12.3 °C 1010.7 hPa SE 9.3 km/h 9.3 km/h 77 % 0.0 mm 0.0 W/m2 CLR
Lo Temps de Massalio
Compliments of Weather Underground - 1.25 mb